OBJECT AM, 57201

Orbit data source: Space-Track

You're viewing an Uncataloged Satellite

Recently launched and/or uncataloged satellites may have evolving metadata. Metadata may include but not limited to: Owner, Maufacturer, Bus, Motor, and Mission.

OBJECT AM, 57201 is a satellite in SSO that was launched on Tue, 27 Jun 2023 UTC via a SOYUZ-2-1B launch vehicle from the Vostochny Cosmodrome (VOSTO). Unknown objects in Earth's orbit typically refer to objects detected orbiting the Earth but have not yet been identified or cataloged. These objects could be anything from previously untracked satellites, spent rocket stages, debris from satellite collisions, or even natural meteoroids temporarily captured by Earth's gravity.

Loading next visibility...
Identifier
57201, 2023-091AM
Orbit
SSO
Country
Flag of TBDTBD
Related business
Manufacturer
Sputniks
Mission
Operational Commercial Communications
Bus & Motor
CUBESAT 3U?, Unknown motor
Mass
3 kg wet, 3 kg dry
Launch date (UTC)
2023-06-27 (3 years ago)
Launch vehicle
SOYUZ-2-1B
Launch site
Vostochny Cosmodrome (VOSTO)
Object type
Unknown
Shape & HBR
Box, 0.1 m
Radar Cross Section
0.035 m², Small (<0.1 m²)

Expand to show TLE details & history
Last TLE update: 5 hours ago

TLE from 5 hours ago
0 OBJECT AM
1 57201U 23091AM  26104.60124377  .00009731  00000-0  28095-3 0  9990
2 57201  97.5126 173.5068 0005648 302.1883  57.8812 15.35872585154982
Epoch: 2026-04-14T14:25Z
TLE epoch observation values (Epoch: 2026-04-14T14:25:47.461Z)
Latitude
-0.00007°
Longitude
114.2839°
Altitude
459.387 km
Speed
7.638 km/s
True Right ascension
11h 34m 01s
True Declination
0° 00' 00"
Sunlit
Object was in full shadow at epoch
Visualization orbit readout
Latitude
Unknown
Longitude
Unknown
Altitude
Unknown
Speed
Unknown
Apparent Right ascension
Unknown
Apparent Declination
Unknown
Sunlit
N/A
Visualization observer readout
Local Sidereal Time
02:18:50
Azimuth
Unknown
Elevation
Unknown
Doppler factor
Unknown
Orbital elements
Apogee altitude
459.139 km
Perigee altitude
451.42 km
Semi-major axis
6,833.416 km
Eccentricity
0.00056
Inclination
97.5126°
RAAN
173.5068°
Arg. of periapsis
302.1883°
True anomaly
57.93604°
Mean anomaly
57.8812°
Eccentric anomaly
57.90862°
Mean motion
3.84226 °/min
Orbital period
93.69 mins
BSTAR
0.00028095
Loading maneuver chart data...
Computing Atmospheric mass density...
Loading historical data...
Loading historical data...
Loading historical data...
Loading historical data...
Loading historical data...
Loading historical data...
Loading historical data...

Documentation

Showing up to 5 results
|